Location: Nairn
(57.5833°N, 3.8667°W)
Time: 04:01:54
(UTC+00:00)

Explorer 7 - Pass Details

Date: 30 November 2020
Orbit: 484 x 678 km, 50.3° (Epoch: 17 January)

Event Time Altitude Azimuth Distance (km) Brightness Sun altitude
Exits shadow 06:23:18 16° 235° (SW) 1,481 8.6 -15.7°
Maximum altitude 06:25:01 20° 204° (SSW) 1,275 8.6 -15.5°
Drops below altitude 10° 06:28:01 10° 155° (SSE) 1,768 10.0 -15.1°
Sets 06:30:34 0° 138° (SE) 2,622 11.3 -14.8°
